Temp
-9 -9 -9 -9 -9 -9 -9 -9 -9 -9 -9 -9 -9 -9 -10 -10 -10 -10 -10 -10 -11 -11 -11 -10 -10 -10 -10 -10 -10 -10 -10 -9 -9 -9 -9 -9 -9 -9 -9 -9 -8 -8
-9 -9 -9 -9 -9 -9 -9 -9 -9 -9 -9 -9 -9 -10 -10 -10 -10 -10 -10 -11 -11 -11 -11 -11 -11 -11 -11 -10 -10 -10 -10 -9 -9 -9 -9 -9 -8 -8 -9 -9 -9 -8
-9 -9 -9 -9 -9 -9 -9 -9 -10 -10 -10 -10 -10 -10 -10 -10 -11 -11 -11 -11 -11 -11 -11 -11 -11 -11 -11 -11 -11 -10 -10 -10 -9 -9 -9 -9 -8 -8 -8 -8 -8 -8
-9 -9 -9 -9 -9 -9 -9 -10 -10 -10 -10 -10 -10 -10 -11 -11 -11 -11 -11 -11 -11 -11 -11 -11 -11 -11 -11 -11 -11 -10 -10 -10 -10 -9 -9 -9 -9 -8 -8 -8 -8 -8
-9 -9 -9 -9 -9 -9 -10 -10 -10 -10 -10 -11 -11 -11 -11 -11 -11 -11 -11 -11 -11 -11 -11 -11 -11 -11 -11 -11 -11 -10 -10 -10 -10 -10 -9 -9 -9 -8 -8 -8 -8 -8
-10 -9 -9 -9 -10 -10 -10 -10 -10 -10 -11 -11 -11 -11 -11 -11 -11 -11 -11 -11 -11 -11 -11 -11 -11 -11 -11 -11 -11 -10 -10 -10 -10 -10 -9 -9 -9 -9 -8 -8 -8 -8
-10 -10 -10 -10 -10 -10 -10 -10 -10 -10 -11 -11 -11 -11 -11 -11 -11 -11 -11 -11 -11 -12 -12 -12 -12 -12 -12 -11 -11 -11 -10 -10 -10 -10 -10 -9 -9 -9 -9 -8 -8 -8
-10 -10 -10 -10 -10 -10 -11 -11 -10 -11 -11 -11 -11 -11 -11 -11 -11 -11 -11 -12 -12 -12 -12 -12 -12 -12 -12 -12 -12 -11 -11 -11 -10 -10 -9 -9 -9 -9 -9 -9 -8 -8
-10 -10 -10 -10 -11 -11 -11 -11 -11 -11 -11 -11 -11 -11 -11 -11 -11 -12 -12 -12 -12 -12 -13 -12 -12 -13 -13 -13 -12 -12 -11 -11 -10 -10 -10 -9 -9 -9 -9 -9 -8 -8
-10 -10 -10 -10 -11 -11 -11 -11 -11 -11 -11 -11 -11 -11 -12 -12 -12 -12 -13 -13 -13 -13 -13 -13 -13 -13 -13 -13 -13 -12 -12 -11 -11 -10 -10 -10 -9 -9 -9 -9 -9 -8
-10 -10 -10 -11 -11 -11 -11 -11 -11 -12 -12 -12 -12 -12 -12 -12 -12 -13 -13 -13 -13 -13 -13 -13 -13 -13 -13 -13 -13 -12 -12 -11 -11 -10 -10 -10 -10 -9 -9 -9 -9 -9
-10 -10 -11 -11 -11 -12 -12 -12 -12 -12 -12 -12 -12 -12 -12 -12 -12 -12 -13 -13 -13 -13 -13 -13 -13 -13 -13 -13 -13 -12 -12 -12 -11 -11 -10 -10 -10 -10 -9 -9 -9 -9
-10 -11 -11 -11 -12 -12 -12 -12 -12 -12 -12 -12 -12 -12 -12 -12 -12 -12 -13 -13 -13 -13 -13 -13 -13 -13 -13 -13 -13 -12 -12 -12 -12 -11 -11 -11 -10 -10 -10 -9 -9 -9
-11 -11 -11 -12 -12 -12 -12 -12 -12 -12 -12 -12 -12 -12 -12 -12 -12 -12 -13 -13 -13 -13 -13 -13 -13 -13 -13 -13 -13 -12 -12 -12 -12 -12 -11 -11 -11 -11 -10 -10 -10 -9
-11 -11 -12 -12 -12 -12 -12 -12 -12 -12 -12 -13 -12 -12 -12 -12 -12 -13 -13 -13 -13 -13 -13 -13 -13 -13 -13 -13 -13 -12 -12 -12 -12 -12 -11 -11 -11 -11 -11 -10 -10 -10
-11 -12 -12 -12 -12 -12 -12 -12 -12 -12 -12 -13 -12 -12 -12 -12 -12 -13 -13 -13 -13 -13 -13 -13 -13 -13 -13 -13 -13 -13 -12 -12 -12 -11 -11 -11 -11 -11 -11 -10 -10 -10
-12 -12 -12 -12 -12 -12 -12 -12 -12 -12 -13 -13 -12 -12 -12 -12 -12 -13 -13 -13 -13 -13 -13 -13 -13 -13 -13 -13 -13 -13 -12 -12 -12 -12 -11 -11 -11 -11 -11 -10 -10 -10
-12 -12 -13 -13 -13 -12 -12 -12 -12 -12 -13 -13 -13 -12 -13 -13 -13 -13 -13 -13 -13 -13 -13 -13 -13 -13 -13 -12 -13 -12 -12 -12 -12 -12 -11 -11 -11 -10 -10 -10 -10 -10
-12 -12 -13 -13 -13 -13 -12 -12 -12 -12 -13 -13 -13 -13 -13 -13 -13 -13 -13 -13 -13 -13 -13 -13 -13 -13 -13 -13 -13 -12 -12 -12 -12 -12 -11 -11 -11 -10 -10 -10 -10 -9
-12 -12 -13 -13 -13 -13 -13 -13 -13 -13 -13 -13 -13 -13 -13 -13 -13 -13 -13 -13 -13 -13 -13 -13 -13 -13 -13 -13 -13 -12 -12 -12 -12 -12 -12 -11 -11 -10 -10 -10 -10 -9
-12 -12 -13 -13 -13 -13 -13 -13 -13 -13 -13 -14 -14 -14 -13 -13 -13 -13 -13 -13 -14 -14 -14 -13 -13 -13 -13 -13 -13 -12 -12 -12 -12 -12 -12 -11 -11 -10 -10 -10 -9 -9
-12 -12 -13 -13 -13 -13 -13 -13 -13 -13 -14 -14 -14 -14 -14 -14 -14 -14 -13 -13 -14 -14 -14 -14 -14 -14 -13 -13 -13 -13 -12 -12 -12 -12 -11 -11 -11 -10 -10 -10 -9 -9
-13 -13 -13 -13 -13 -13 -13 -13 -13 -14 -14 -14 -14 -14 -14 -14 -14 -14 -14 -13 -14 -14 -15 -14 -14 -14 -14 -13 -13 -13 -12 -12 -12 -11 -11 -11 -10 -10 -10 -10 -9 -9
-13 -13 -13 -13 -13 -13 -13 -13 -13 -14 -14 -14 -14 -14 -14 -14 -14 -14 -14 -14 -14 -14 -15 -15 -15 -15 -14 -13 -13 -13 -12 -12 -12 -12 -11 -11 -11 -10 -10 -10 -10 -9
-13 -13 -13 -14 -13 -14 -14 -13 -14 -14 -14 -15 -15 -14 -14 -14 -14 -14 -14 -14 -14 -14 -15 -15 -15 -15 -14 -14 -13 -13 -13 -12 -12 -11 -11 -11 -11 -10 -10 -10 -10 -9
-14 -14 -14 -14 -14 -14 -14 -14 -14 -14 -15 -15 -15 -15 -15 -14 -14 -14 -14 -14 -14 -15 -15 -15 -15 -15 -15 -14 -13 -13 -13 -13 -12 -11 -11 -11 -11 -10 -10 -10 -10 -10
Height
5851 5848 5846 5843 5840 5838 5835 5832 5830 5827 5825 5822 5820 5817 5815 5812 5809 5806 5804 5803 5801 5801 5802 5802 5801 5801 5801 5801 5801 5801 5801 5800 5800 5803 5806 5808 5808 5807 5807 5809 5811 5813
5847 5844 5842 5840 5837 5834 5831 5828 5825 5822 5819 5817 5814 5811 5809 5806 5804 5801 5799 5798 5797 5796 5796 5797 5797 5796 5796 5796 5796 5796 5796 5796 5796 5796 5799 5802 5804 5803 5803 5804 5806 5808
5843 5841 5838 5836 5833 5830 5826 5823 5820 5817 5814 5811 5808 5806 5803 5801 5798 5796 5794 5792 5791 5790 5790 5791 5791 5791 5791 5791 5791 5791 5791 5791 5791 5791 5792 5795 5797 5798 5799 5799 5801 5803
5839 5837 5834 5831 5829 5825 5822 5818 5815 5812 5809 5806 5803 5800 5797 5795 5793 5791 5789 5787 5785 5784 5783 5784 5784 5785 5785 5785 5785 5785 5785 5786 5786 5785 5786 5788 5790 5791 5792 5793 5794 5796
5835 5833 5830 5827 5824 5821 5817 5814 5810 5807 5804 5801 5798 5795 5792 5789 5787 5785 5783 5781 5779 5778 5776 5776 5776 5777 5777 5778 5778 5779 5779 5779 5779 5779 5780 5781 5783 5784 5785 5786 5788 5790
5831 5828 5825 5822 5819 5816 5812 5809 5806 5803 5800 5797 5794 5791 5788 5784 5781 5779 5777 5775 5773 5772 5770 5769 5768 5768 5768 5769 5770 5770 5771 5771 5772 5772 5773 5775 5776 5777 5778 5780 5782 5784
5826 5823 5819 5816 5813 5810 5807 5804 5802 5799 5796 5793 5790 5787 5783 5780 5776 5773 5771 5769 5767 5766 5764 5763 5761 5760 5760 5760 5760 5761 5762 5763 5764 5765 5766 5768 5769 5771 5772 5774 5775 5777
5820 5818 5814 5811 5808 5805 5802 5800 5797 5794 5792 5789 5785 5782 5778 5775 5771 5768 5765 5763 5761 5760 5758 5756 5754 5753 5752 5752 5751 5752 5753 5754 5756 5758 5759 5761 5763 5765 5766 5767 5769 5771
5816 5813 5810 5807 5804 5801 5798 5795 5793 5790 5788 5785 5781 5777 5774 5770 5766 5763 5760 5757 5755 5754 5752 5750 5748 5746 5744 5744 5744 5743 5744 5746 5748 5750 5752 5754 5756 5758 5760 5761 5763 5764
5813 5810 5806 5803 5800 5797 5794 5791 5789 5786 5784 5781 5777 5773 5769 5765 5762 5759 5756 5753 5751 5748 5746 5744 5742 5740 5738 5737 5737 5737 5737 5739 5741 5743 5745 5747 5749 5751 5753 5755 5756 5758
5809 5806 5803 5799 5796 5793 5790 5787 5785 5782 5779 5776 5773 5768 5764 5761 5758 5755 5752 5749 5746 5743 5740 5738 5736 5734 5732 5730 5730 5730 5731 5733 5735 5737 5739 5740 5742 5744 5746 5748 5749 5752
5806 5803 5799 5796 5792 5789 5787 5784 5781 5778 5775 5772 5769 5765 5760 5757 5754 5751 5748 5745 5741 5738 5736 5733 5730 5728 5726 5724 5723 5724 5725 5727 5729 5731 5733 5734 5735 5737 5739 5741 5743 5745
5801 5798 5795 5792 5789 5786 5783 5780 5777 5774 5771 5768 5765 5761 5757 5753 5750 5748 5745 5741 5737 5734 5732 5729 5725 5724 5723 5721 5720 5720 5721 5723 5725 5727 5728 5729 5730 5732 5733 5735 5737 5739
5797 5794 5791 5788 5785 5782 5779 5776 5773 5771 5768 5764 5761 5758 5753 5749 5746 5744 5742 5738 5734 5731 5728 5725 5722 5721 5720 5718 5717 5716 5717 5719 5722 5723 5724 5725 5726 5727 5728 5730 5731 5734
5793 5790 5787 5784 5781 5778 5776 5773 5770 5767 5764 5760 5757 5754 5750 5746 5742 5740 5738 5734 5730 5727 5725 5722 5720 5719 5718 5716 5714 5713 5713 5715 5717 5718 5720 5721 5722 5722 5723 5725 5727 5729
5789 5786 5783 5780 5777 5774 5771 5769 5766 5763 5759 5756 5754 5751 5747 5743 5739 5737 5734 5731 5728 5725 5722 5720 5719 5718 5715 5712 5711 5710 5710 5711 5713 5714 5715 5716 5717 5718 5719 5721 5722 5723
5785 5782 5779 5776 5773 5770 5767 5764 5762 5759 5756 5753 5750 5747 5744 5740 5737 5734 5731 5728 5726 5724 5722 5720 5718 5717 5712 5709 5708 5708 5707 5708 5709 5710 5711 5712 5713 5714 5715 5717 5718 5719
5781 5778 5775 5772 5769 5766 5763 5760 5758 5755 5752 5749 5746 5744 5741 5737 5734 5731 5729 5726 5724 5722 5721 5718 5716 5714 5710 5706 5706 5706 5705 5705 5705 5706 5707 5708 5709 5711 5712 5713 5714 5715
5777 5774 5771 5768 5766 5763 5760 5757 5754 5751 5749 5746 5743 5740 5738 5735 5731 5728 5726 5724 5721 5720 5719 5716 5713 5711 5708 5705 5704 5703 5702 5702 5702 5703 5703 5704 5705 5706 5708 5709 5711 5712
5773 5770 5767 5764 5762 5759 5756 5753 5750 5748 5745 5742 5740 5737 5734 5732 5729 5725 5723 5721 5718 5716 5715 5713 5710 5707 5705 5702 5701 5700 5699 5699 5699 5699 5700 5700 5701 5703 5704 5706 5707 5708
5769 5766 5763 5761 5758 5755 5753 5750 5747 5744 5741 5738 5736 5733 5731 5729 5726 5723 5720 5718 5716 5713 5711 5709 5707 5704 5702 5700 5698 5697 5696 5696 5696 5696 5696 5697 5698 5699 5700 5700 5701 5703
5765 5762 5760 5757 5754 5752 5749 5746 5743 5740 5737 5735 5732 5730 5728 5726 5723 5721 5719 5716 5714 5711 5708 5706 5704 5701 5699 5697 5696 5694 5693 5693 5693 5692 5692 5693 5694 5695 5695 5695 5696 5697
5760 5758 5756 5753 5751 5749 5746 5743 5740 5737 5734 5731 5728 5726 5725 5723 5720 5718 5716 5714 5712 5709 5706 5703 5701 5699 5697 5695 5694 5692 5691 5690 5689 5689 5688 5689 5689 5690 5691 5691 5692 5692
5755 5753 5751 5749 5747 5745 5742 5739 5736 5733 5730 5727 5725 5723 5722 5720 5718 5715 5714 5712 5710 5708 5705 5702 5700 5697 5695 5694 5692 5690 5689 5687 5686 5686 5685 5685 5685 5686 5687 5688 5688 5688
5750 5748 5747 5745 5743 5741 5738 5735 5732 5729 5727 5724 5722 5720 5719 5718 5715 5713 5712 5710 5708 5706 5704 5701 5698 5696 5694 5692 5690 5689 5687 5685 5684 5683 5683 5682 5682 5683 5684 5685 5684 5684
5746 5744 5742 5740 5739 5737 5734 5731 5728 5726 5724 5721 5719 5717 5716 5715 5713 5711 5710 5708 5706 5704 5702 5700 5697 5695 5693 5691 5689 5687 5686 5684 5682 5681 5681 5681 5681 5682 5683 5683 5682 5682
Wind_Speed
34 35 36 37 38 39 40 41 43 44 45 47 48 49 48 47 46 45 44 43 42 40 37 36 36 36 36 36 36 38 40 42 42 41 41 40 40 41 42 41 40 41
35 36 36 37 38 40 41 42 43 44 46 47 49 49 48 46 44 44 44 43 42 40 37 35 34 35 36 37 37 38 40 41 42 42 41 40 40 41 42 42 42 43
36 37 37 38 39 40 42 44 44 44 46 47 47 47 45 44 43 43 43 42 42 40 38 36 34 34 35 36 38 39 40 42 42 43 42 40 40 40 41 43 45 45
37 37 37 38 39 41 42 44 44 44 45 46 45 44 43 42 42 42 42 42 41 41 40 38 35 34 35 36 38 40 41 42 43 44 43 41 40 40 41 43 44 46
38 38 38 39 40 42 43 43 42 43 43 43 42 42 42 42 42 41 41 41 41 41 41 41 39 37 37 37 38 40 42 43 43 45 44 42 41 41 41 42 44 45
40 40 40 42 43 44 44 42 42 42 42 41 40 41 41 41 41 40 40 40 41 41 42 42 42 41 40 39 39 40 42 43 43 44 44 43 42 42 41 42 43 45
41 42 43 45 46 45 44 42 41 41 41 39 39 39 39 39 39 40 40 40 41 41 42 43 43 43 42 41 40 40 42 43 43 43 44 43 42 42 42 42 43 44
43 44 46 47 48 46 44 41 40 40 39 38 39 39 38 38 38 38 39 40 41 41 41 42 43 43 42 40 40 40 41 42 42 42 42 42 42 42 42 43 43 45
44 46 48 49 48 46 43 40 39 38 37 37 38 39 38 38 37 37 37 39 40 40 40 40 40 41 40 39 38 38 39 40 40 39 39 40 40 41 42 43 44 45
45 47 49 49 47 44 41 39 37 35 35 36 38 39 38 38 37 36 37 37 38 38 38 37 37 36 36 35 34 34 35 36 37 37 37 37 38 39 40 42 43 45
46 48 48 47 45 42 39 37 34 33 34 37 39 39 39 38 36 36 37 37 38 38 37 35 34 32 31 31 30 30 31 32 34 35 35 35 36 37 38 40 42 43
47 48 48 46 43 40 37 35 32 32 35 38 39 40 40 38 37 37 37 36 36 37 36 34 32 29 28 28 29 29 29 30 31 32 33 34 34 34 36 38 40 41
48 49 47 44 41 38 36 34 33 33 37 40 40 40 40 40 39 38 37 35 33 34 35 33 29 28 27 27 28 28 27 28 29 30 31 32 32 32 34 36 38 39
49 48 46 43 40 37 35 35 36 37 40 41 40 39 41 41 40 38 36 34 33 33 33 30 28 28 26 24 25 25 24 25 27 28 29 30 31 31 31 34 36 38
49 47 44 42 39 37 35 36 37 39 41 40 38 38 40 41 41 38 35 34 33 32 31 28 27 27 25 23 23 23 23 24 25 27 29 29 30 30 30 31 33 36
48 46 43 41 38 37 36 37 38 39 39 38 36 37 39 40 41 39 35 34 32 30 29 28 26 25 25 22 21 21 23 25 26 27 29 30 30 29 30 30 31 34
47 44 41 39 37 37 37 37 38 38 37 36 35 37 39 40 40 38 35 33 31 28 27 26 23 23 24 21 20 20 22 25 27 29 29 29 29 30 30 32 32 33
46 43 40 37 36 36 36 37 37 37 35 35 36 37 39 39 39 38 35 32 30 27 25 24 21 21 24 21 20 20 21 23 26 29 29 27 27 28 30 32 33 33
46 43 40 38 36 36 36 37 37 36 36 36 37 38 38 38 38 38 35 32 30 28 26 24 22 22 23 22 20 21 21 20 21 24 28 29 27 27 29 30 32 33
46 44 41 39 37 36 37 37 37 37 37 37 38 38 38 36 36 36 35 32 30 30 27 24 23 24 23 22 21 21 20 19 18 19 24 28 28 26 26 28 30 32
45 44 42 40 38 37 37 38 38 37 37 38 38 38 37 35 34 34 34 31 30 30 29 26 25 25 24 22 23 23 20 19 19 19 20 23 24 23 24 26 28 30
44 43 42 40 38 37 38 39 39 38 38 38 37 36 35 34 33 33 33 30 29 29 30 28 25 25 24 23 24 25 23 20 21 21 21 21 21 22 23 26 27 28
43 43 42 41 39 38 39 40 40 39 37 36 35 34 33 32 32 32 32 29 27 27 29 29 27 26 26 24 24 26 25 22 21 22 22 21 21 21 23 25 27 28
43 43 43 42 41 40 39 40 40 38 36 34 33 31 30 29 30 31 30 29 26 25 26 28 28 28 28 26 24 24 25 24 21 21 21 21 21 20 20 22 25 27
44 44 44 44 43 42 41 40 40 37 34 32 31 29 28 27 28 29 28 28 26 24 24 26 27 29 29 27 24 22 23 24 22 20 20 21 22 20 17 20 23 24
45 44 45 46 46 45 42 41 39 36 33 31 29 28 27 26 26 27 26 26 25 24 24 25 26 28 29 28 25 22 21 22 22 19 18 19 20 19 19 20 20 19
Wind_Direction
313 311 310 308 307 306 304 303 303 303 303 304 304 304 303 301 300 299 297 296 294 293 290 286 283 279 275 270 265 260 258 259 259 259 257 255 257 259 261 260 255 249
314 312 310 308 306 304 303 302 302 302 303 304 304 304 303 302 300 299 298 296 295 294 292 289 285 280 274 269 265 261 257 255 255 255 255 253 251 253 255 255 253 249
315 313 310 309 307 305 304 303 303 304 305 306 306 306 304 302 301 300 298 297 295 294 293 291 288 283 276 269 264 261 258 255 253 253 253 252 250 249 250 251 249 246
314 312 311 310 309 308 307 307 307 308 308 309 309 307 305 303 302 301 298 296 295 294 293 292 289 284 279 272 265 261 259 257 254 252 252 251 249 248 247 248 248 245
313 312 312 312 312 312 311 310 310 311 312 311 309 307 307 305 304 301 298 296 293 292 291 290 288 285 281 276 268 262 258 257 256 254 251 249 248 246 245 245 245 244
314 314 314 315 316 315 313 312 312 313 314 313 310 309 308 307 305 301 298 295 292 290 289 289 288 285 281 278 273 266 259 256 255 254 252 249 247 245 244 243 242 242
316 317 318 318 318 317 315 313 313 314 315 314 313 312 310 308 305 302 298 294 292 291 290 290 289 286 282 278 274 269 263 257 254 252 250 249 247 245 244 243 241 240
319 320 320 320 319 318 315 313 313 315 316 316 315 314 313 310 306 302 299 296 294 294 294 293 291 288 283 277 273 269 264 259 255 251 249 247 246 244 243 242 241 239
320 320 320 320 319 317 315 313 314 316 317 318 319 317 315 313 309 306 304 301 300 299 296 295 294 290 283 276 271 266 262 258 256 252 249 247 245 244 243 242 241 239
320 320 320 320 319 317 315 314 315 316 319 322 322 320 318 316 314 312 310 308 307 305 301 298 296 291 282 276 272 266 260 256 254 251 249 248 247 246 244 242 240 239
319 319 320 320 320 317 315 314 315 317 321 324 324 323 321 318 316 316 315 313 311 310 307 301 295 289 279 273 271 267 259 252 250 247 246 247 248 247 245 242 239 238
319 319 320 321 320 317 315 314 314 318 324 326 325 325 323 320 318 318 318 315 312 311 309 302 293 284 278 276 273 267 258 249 245 243 243 245 244 243 243 242 238 236
319 320 321 321 320 317 316 313 312 316 321 323 324 324 324 323 321 321 322 318 311 309 308 301 290 281 280 283 282 274 261 248 243 243 243 243 242 240 240 239 238 236
318 320 321 322 320 318 316 314 312 313 316 319 320 321 323 324 323 323 325 320 312 307 305 299 290 285 285 284 281 274 259 245 241 244 244 242 241 241 240 239 237 236
318 320 322 322 320 318 317 316 314 315 315 317 317 318 321 324 324 325 325 322 317 310 306 303 296 292 292 285 277 270 256 244 241 243 243 241 238 239 241 241 238 235
318 320 322 322 319 317 318 318 318 318 317 317 316 316 319 322 324 325 325 324 319 312 307 307 304 304 305 292 275 267 256 246 242 242 241 239 237 237 240 240 238 236
318 321 321 320 318 317 318 319 320 320 319 317 316 316 318 320 322 324 324 323 319 311 307 307 308 317 320 301 273 266 259 247 242 243 241 237 237 238 239 238 236 235
318 320 320 318 317 316 318 319 320 320 319 317 316 316 317 318 319 321 322 321 317 309 303 305 309 318 318 299 272 267 264 252 245 244 240 236 236 237 237 236 235 233
317 319 319 318 316 315 316 318 318 318 317 316 315 315 315 316 317 318 319 320 317 309 301 303 309 313 310 297 278 271 271 265 256 247 240 237 237 237 236 234 233 232
316 318 319 318 315 313 314 315 315 315 314 313 313 313 313 314 315 316 317 318 317 313 305 297 300 305 304 299 291 282 279 277 270 255 245 241 240 239 238 236 235 233
315 317 318 318 315 313 313 314 314 312 311 310 310 311 310 311 313 314 317 318 317 317 311 300 297 303 304 303 301 296 290 285 278 269 261 252 246 244 244 242 242 241
314 316 318 318 316 314 315 315 313 311 309 307 308 309 308 310 312 313 316 319 318 319 316 308 305 307 305 302 302 303 300 294 283 276 272 265 256 250 248 248 249 249
312 315 318 318 316 315 316 316 314 312 309 308 307 307 306 309 311 313 316 319 320 320 318 314 313 314 311 304 301 304 306 298 286 279 275 270 262 253 251 253 251 249
311 315 317 317 315 315 316 317 315 312 311 309 307 305 306 308 309 311 314 318 321 322 320 318 317 318 319 313 304 303 307 303 291 280 275 272 267 259 258 260 255 249
311 314 317 316 314 313 315 316 315 312 311 309 306 304 305 307 307 308 312 316 321 323 322 320 319 319 322 321 311 304 307 309 299 282 271 271 271 267 264 264 261 254
310 312 314 315 313 312 314 315 314 311 309 307 303 302 303 305 304 305 309 314 318 323 324 322 320 321 323 324 317 308 308 315 309 287 264 264 270 267 263 263 255 243